User: anonymous   Login
Location: Unspecified
(0.0000°N, 0.0000°E)
Time: 17:36:13
(UTC+00:00)
Language:

Transit 2A Rocket - Orbit

View from above orbital plane
View from above orbital plane
View from above satellite
View from above satellite

Ground track
Ground track

The orbit data is extracted from the following two-line orbital elements,

1    47U 60007C   18112.92331313 -.00000038 +00000-0 +16526-4 0  9998
2    47 066.6645 097.8753 0225224 160.5287 200.4598 14.41978570021277
Epoch (UTC): 22 April 2018 22:09:34
Eccentricity: 0.0225224
inclination: 66.6645°
perigee height: 591 km
apogee height: 912 km
right ascension of ascending node: 97.8753°
argument of perigee: 160.5287°
revolutions per day: 14.41978570
mean anomaly at epoch: 200.4598°
orbit number at epoch: 2127

The dashed part of the orbit path shows where the satellite is in the earth's shadow,  

DLR